• In Portugal
  • List of Countries
  • For 7 days
  • Water Temperature
  • Satellite Maps
  • Weather Map
  • Weather Widgets
  • user-avatar
    Login

    Hourly Weather Kalinovka

    Today, 20 September, Thursday

    Time Temperature Precipitation Wind Pressure Humidity
    00:00 +17°C° 0 mm 2 mps 741 mmHg 69%
    01:00 +16°C° 0 mm 2 mps 741 mmHg 70%
    02:00 +16°C° 0 mm 2 mps 740 mmHg 67%
    03:00 +16°C° 0 mm 2 mps 740 mmHg 67%
    04:00 +15°C° 0 mm 2 mps 740 mmHg 67%
    05:00 +15°C° 0 mm 2 mps 740 mmHg 68%
    06:00 +16°C° 0 mm 2 mps 741 mmHg 66%
    07:00 +17°C° 0 mm 2 mps 741 mmHg 64%
    08:00 +19°C° 0 mm 2 mps 741 mmHg 60%
    09:00 +20°C° 0 mm 2 mps 741 mmHg 55%
    10:00 +23°C° 0 mm 2 mps 741 mmHg 50%
    11:00 +25°C° 0 mm 2 mps 741 mmHg 45%
    12:00 +26°C° 0 mm 2 mps 741 mmHg 43%
    13:00 +26°C° 0 mm 2 mps 741 mmHg 40%
    14:00 +27°C° 0 mm 1 mps 741 mmHg 38%
    15:00 +27°C° 0 mm 1 mps 740 mmHg 42%
    16:00 +26°C° 0 mm 1 mps 740 mmHg 45%
    17:00 +25°C° 0 mm 1 mps 740 mmHg 49%
    18:00 +24°C° 0 mm 1 mps 740 mmHg 51%
    19:00 +22°C° 0 mm 1 mps 740 mmHg 53%
    20:00 +20°C° 0 mm 1 mps 740 mmHg 55%
    21:00 +19°C° 0 mm 1 mps 740 mmHg 56%
    22:00 +19°C° 0 mm 1 mps 740 mmHg 57%
    23:00 +18°C° 0 mm 1 mps 740 mmHg 58%

    Tomorrow, 21 September, Friday

    Time Temperature Precipitation Wind Pressure Humidity
    00:00 +18°C° 0 mm 1 mps 740 mmHg 59%
    01:00 +16°C° 0 mm 1 mps 740 mmHg 59%
    02:00 +16°C° 0 mm 1 mps 740 mmHg 60%
    03:00 +16°C° 0 mm 1 mps 740 mmHg 60%
    04:00 +16°C° 0 mm 1 mps 740 mmHg 60%
    05:00 +15°C° 0 mm 1 mps 740 mmHg 60%
    06:00 +18°C° 0 mm 1 mps 740 mmHg 59%
    07:00 +19°C° 0 mm 1 mps 740 mmHg 57%
    08:00 +20°C° 0 mm 1 mps 740 mmHg 56%
    09:00 +21°C° 0 mm 2 mps 740 mmHg 51%
    10:00 +24°C° 0 mm 2 mps 740 mmHg 46%
    11:00 +26°C° 0 mm 3 mps 740 mmHg 41%
    12:00 +26°C° 0 mm 3 mps 740 mmHg 39%
    13:00 +27°C° 0 mm 3 mps 740 mmHg 37%
    14:00 +27°C° 0 mm 3 mps 739 mmHg 36%
    15:00 +27°C° 0 mm 3 mps 739 mmHg 40%
    16:00 +26°C° 0 mm 2 mps 739 mmHg 43%
    17:00 +25°C° 0 mm 2 mps 738 mmHg 47%
    18:00 +23°C° 0 mm 2 mps 738 mmHg 49%
    19:00 +21°C° 0 mm 3 mps 738 mmHg 51%
    20:00 +19°C° 0 mm 3 mps 738 mmHg 52%
    21:00 +18°C° 0 mm 3 mps 738 mmHg 53%
    22:00 +18°C° 0 mm 3 mps 737 mmHg 53%
    23:00 +18°C° 0 mm 3 mps 737 mmHg 54%

    Day after tomorrow, 22 September, Saturday

    Time Temperature Precipitation Wind Pressure Humidity
    00:00 +17°C° 0 mm 3 mps 737 mmHg 54%
    01:00 +17°C° 0 mm 3 mps 737 mmHg 54%
    02:00 +17°C° 0 mm 3 mps 737 mmHg 54%
    03:00 +16°C° 0 mm 3 mps 737 mmHg 55%
    04:00 +16°C° 0 mm 3 mps 737 mmHg 56%
    05:00 +16°C° 0 mm 3 mps 736 mmHg 56%
    06:00 +17°C° 0 mm 4 mps 736 mmHg 56%
    07:00 +18°C° 0 mm 4 mps 736 mmHg 56%
    08:00 +19°C° 0 mm 4 mps 736 mmHg 56%
    09:00 +21°C° 0 mm 4 mps 736 mmHg 52%
    10:00 +23°C° 0 mm 4 mps 736 mmHg 48%
    11:00 +25°C° 0 mm 4 mps 736 mmHg 44%
    12:00 +26°C° 0 mm 4 mps 736 mmHg 44%
    13:00 +26°C° 0 mm 4 mps 736 mmHg 43%
    14:00 +27°C° 0 mm 4 mps 736 mmHg 42%
    15:00 +25°C° 0 mm 4 mps 736 mmHg 49%
    16:00 +23°C° 0 mm 4 mps 736 mmHg 56%
    17:00 +21°C° 0 mm 4 mps 735 mmHg 63%
    18:00 +19°C° 0.2 mm 5 mps 736 mmHg 67%
    19:00 +15°C° 0.2 mm 6 mps 736 mmHg 71%
    20:00 +12°C° 0.2 mm 7 mps 736 mmHg 75%
    21:00 +10°C° 1.9 mm 7 mps 736 mmHg 80%
    22:00 +9°C° 1.9 mm 6 mps 737 mmHg 84%
    23:00 +8°C° 1.9 mm 6 mps 737 mmHg 89%

    23 September, Sunday

    Time Temperature Precipitation Wind Pressure Humidity
    00:00 +7°C° 1 mm 5 mps 738 mmHg 89%
    01:00 +7°C° 1 mm 4 mps 738 mmHg 90%
    02:00 +7°C° 1 mm 4 mps 738 mmHg 90%
    03:00 +6°C° 0 mm 4 mps 738 mmHg 91%
    04:00 +7°C° 0 mm 3 mps 738 mmHg 91%
    05:00 +7°C° 0 mm 3 mps 738 mmHg 92%
    06:00 +7°C° 0 mm 4 mps 738 mmHg 88%
    07:00 +8°C° 0 mm 4 mps 738 mmHg 83%
    08:00 +9°C° 0 mm 5 mps 738 mmHg 79%
    09:00 +12°C° 0 mm 5 mps 739 mmHg 71%
    10:00 +13°C° 0 mm 6 mps 739 mmHg 63%
    11:00 +15°C° 0 mm 6 mps 739 mmHg 55%
    12:00 +16°C° 0 mm 6 mps 739 mmHg 52%
    13:00 +16°C° 0 mm 6 mps 739 mmHg 50%
    14:00 +16°C° 0 mm 7 mps 738 mmHg 47%
    15:00 +16°C° 0 mm 5 mps 738 mmHg 51%
    16:00 +15°C° 0 mm 4 mps 738 mmHg 54%
    17:00 +16°C° 0 mm 3 mps 738 mmHg 58%
    18:00 +13°C° 0 mm 3 mps 738 mmHg 61%
    19:00 +12°C° 0 mm 3 mps 738 mmHg 63%
    20:00 +12°C° 0 mm 2 mps 738 mmHg 66%
    21:00 +12°C° 0 mm 2 mps 738 mmHg 66%
    22:00 +10°C° 0 mm 2 mps 738 mmHg 66%
    23:00 +10°C° 0 mm 2 mps 738 mmHg 66%

    24 September, Monday

    Time Temperature Precipitation Wind Pressure Humidity
    00:00 +10°C° 0 mm 3 mps 737 mmHg 66%
    01:00 +10°C° 0 mm 3 mps 737 mmHg 66%
    02:00 +10°C° 0 mm 3 mps 736 mmHg 66%
    03:00 +11°C° 0 mm 4 mps 735 mmHg 62%
    04:00 +12°C° 0 mm 5 mps 734 mmHg 58%
    05:00 +11°C° 0 mm 6 mps 733 mmHg 53%
    06:00 +11°C° 0.6 mm 6 mps 732 mmHg 56%
    07:00 +11°C° 0.6 mm 7 mps 731 mmHg 59%
    08:00 +11°C° 0.6 mm 7 mps 729 mmHg 61%
    09:00 +13°C° 0.6 mm 8 mps 729 mmHg 63%
    10:00 +15°C° 0.6 mm 8 mps 728 mmHg 64%
    11:00 +16°C° 0.6 mm 8 mps 727 mmHg 65%
    12:00 +17°C° 0.1 mm 9 mps 726 mmHg 66%
    13:00 +17°C° 0.1 mm 9 mps 726 mmHg 67%
    14:00 +18°C° 0.1 mm 9 mps 725 mmHg 67%
    15:00 +16°C° 0.2 mm 10 mps 726 mmHg 66%
    16:00 +13°C° 0.2 mm 11 mps 727 mmHg 64%
    17:00 +10°C° 0.2 mm 12 mps 727 mmHg 62%
    18:00 +9°C° 0 mm 12 mps 728 mmHg 61%
    19:00 +9°C° 0 mm 12 mps 729 mmHg 60%
    20:00 +8°C° 0 mm 12 mps 730 mmHg 59%
    21:00 +8°C° 0 mm 11 mps 730 mmHg 60%
    22:00 +8°C° 0 mm 11 mps 731 mmHg 62%
    23:00 +7°C° 0 mm 10 mps 731 mmHg 64%

    25 September, Tuesday

    Time Temperature Precipitation Wind Pressure Humidity
    00:00 +7°C° 0 mm 10 mps 732 mmHg 66%
    01:00 +6°C° 0 mm 10 mps 732 mmHg 69%
    02:00 +6°C° 0 mm 9 mps 733 mmHg 71%
    03:00 +6°C° 0 mm 9 mps 734 mmHg 70%
    04:00 +6°C° 0 mm 9 mps 734 mmHg 68%
    05:00 +6°C° 0 mm 9 mps 735 mmHg 67%
    06:00 +6°C° 0 mm 9 mps 736 mmHg 67%
    07:00 +6°C° 0 mm 10 mps 736 mmHg 67%
    08:00 +6°C° 0 mm 10 mps 736 mmHg 67%
    09:00 +6°C° 0 mm 10 mps 737 mmHg 64%
    10:00 +7°C° 0 mm 10 mps 738 mmHg 61%
    11:00 +7°C° 0 mm 10 mps 738 mmHg 58%
    12:00 +8°C° 0 mm 10 mps 738 mmHg 57%
    13:00 +8°C° 0 mm 10 mps 739 mmHg 56%
    14:00 +8°C° 0 mm 10 mps 739 mmHg 54%
    15:00 +8°C° 0.1 mm 9 mps 739 mmHg 55%
    16:00 +7°C° 0.1 mm 8 mps 740 mmHg 57%
    17:00 +8°C° 0.1 mm 7 mps 740 mmHg 58%
    18:00 +6°C° 0 mm 7 mps 741 mmHg 59%
    19:00 +5°C° 0 mm 6 mps 741 mmHg 61%
    20:00 +6°C° 0 mm 5 mps 742 mmHg 63%
    21:00 +5°C° 0 mm 5 mps 742 mmHg 64%
    22:00 +5°C° 0 mm 5 mps 742 mmHg 65%
    23:00 +5°C° 0 mm 5 mps 742 mmHg 67%
    Show more